• Processing (Info)

  • MPEC 2006-B29 : 2006 BN6

    The following Minor Planet Electronic Circular may be linked-to from your own Web pages, but must not otherwise be redistributed electronically.

    A form allowing access to any MPEC is at the bottom of this page.


    Read MPEC 2006-B28 Read MPEC 2006-B30


    M.P.E.C. 2006-B29                                Issued 2006 Jan. 24, 02:57 UT
    
         The Minor Planet Electronic Circulars contain information on unusual
             minor planets and routine data on comets.  They are published
       on behalf of Commission 20 of the International Astronomical Union by the
              Minor Planet Center, Smithsonian Astrophysical Observatory,
                              Cambridge, MA 02138, U.S.A.
    
                      Supported in part by the Brinson Foundation
                      Supported in part by the TABASGO Foundation
                 Prepared using the Tamkin Foundation Computer Network
    
                                  MPC@CFA.HARVARD.EDU
              URL http://cfa-www.harvard.edu/iau/mpc.html  ISSN 1523-6714
    
                                       2006 BN6
    
    Observations:
         K06B06N* C2006 01 21.66856 09 14 03.66 -30 19 15.1          17.6 V EB029E12
         K06B06N  C2006 01 21.70037 09 14 01.89 -30 21 08.8          17.8 V EB029E12
         K06B06N  C2006 01 21.71630 09 14 01.03 -30 22 04.6          17.5 V EB029E12
         K06B06N  C2006 01 21.73506 09 13 59.95 -30 23 11.7          17.7 V EB029E12
         K06B06N  C2006 01 21.73771 09 13 59.80 -30 23 21.5          17.8 V EB029E12
         K06B06N  C2006 01 21.74037 09 13 59.66 -30 23 30.8          17.7 V EB029E12
         K06B06N  C2006 01 21.74302 09 13 59.52 -30 23 40.4          17.8 V EB029E12
         K06B06N  C2006 01 21.74926 09 13 59.19 -30 24 02.3          18.0 V EB029E12
         K06B06N  C2006 01 21.74990 09 13 59.12 -30 24 05.0          17.7 V EB029E12
         K06B06N  C2006 01 21.75056 09 13 59.12 -30 24 06.9          17.5 V EB029E12
         K06B06N  C2006 01 21.75120 09 13 59.08 -30 24 09.3          17.8 V EB029E12
         K06B06N  C2006 01 22.02881 09 13 46.14 -30 41 05.4          18.2 R EB029J87
         K06B06N  C2006 01 22.03994 09 13 45.49 -30 41 45.9          18.3 R EB029J87
         K06B06N  C2006 01 22.05107 09 13 44.78 -30 42 26.0          17.8 R EB029J87
         K06B06N  C2006 01 22.33914 09 13 30.09 -30 59 50.0          18.3 R EB029854
         K06B06N  C2006 01 22.34299 09 13 29.91 -31 00 03.9          18.2 R EB029854
         K06B06N  C2006 01 22.34491 09 13 29.75 -31 00 11.2          18.3 R EB029854
         K06B06N WC2006 01 22.35220 09 13 29.48 -31 00 38.4                 EB029670
         K06B06N WC2006 01 22.35420 09 13 29.53 -31 00 44.8                 EB029670
         K06B06N WC2006 01 22.35527 09 13 29.36 -31 00 48.5                 EB029670
         K06B06N 5C2006 01 22.39109 09 13 27.19 -31 02 58.6          17.9 R EB029673
         K06B06N 5C2006 01 22.39769 09 13 26.83 -31 03 21.2                 EB029673
         K06B06N 5C2006 01 22.40000 09 13 26.66 -31 03 31.9                 EB029673
         K06B06N 5C2006 01 22.40613 09 13 26.32 -31 03 52.7                 EB029673
         K06B06N 2C2006 01 22.40913 09 13 25.94 -31 04 03.3          17.2 R EB029H06
         K06B06N 2C2006 01 22.41737 09 13 25.45 -31 04 33.2          17.3 R EB029H06
         K06B06N  C2006 01 22.51250 09 13 21.66 -31 10 03.5          18.1 R EB029423
         K06B06N  C2006 01 22.54150 09 13 19.92 -31 11 50.1          18.0 R EB029423
         K06B06N  C2006 01 22.56865 09 13 18.32 -31 13 29.5          18.1 R EB029423
         K06B06N  C2006 01 22.59752 09 13 16.68 -31 15 16.0          17.5 V EB029E12
         K06B06N  C2006 01 22.59947 09 13 16.53 -31 15 23.5          17.8 V EB029E12
         K06B06N  C2006 01 22.62252 09 13 15.13 -31 16 47.3          18.0 R EB029423
         K06B06N  C2006 01 22.67784 09 13 11.81 -31 20 10.6          18.1 V EB029E12
         K06B06N  C2006 01 23.15752 09 12 45.96 -31 49 42.3          18.1 R EB029I77
         K06B06N  C2006 01 23.16070 09 12 45.75 -31 49 54.2          18.2 R EB029I77
         K06B06N  C2006 01 23.16493 09 12 45.49 -31 50 09.9          17.9 R EB029I77
         K06B06N  C2006 01 23.49193 09 12 27.86 -32 10 20.7          18.0 V EB029E12
         K06B06N  C2006 01 23.49285 09 12 27.79 -32 10 24.2          17.7 V EB029E12
         K06B06N  C2006 01 23.49688 09 12 27.54 -32 10 39.6          17.9 V EB029E12
         K06B06N  C2006 01 23.49779 09 12 27.50 -32 10 42.7          17.9 V EB029E12
         K06B06N  C2006 01 23.49870 09 12 27.43 -32 10 46.3          17.6 V EB029E12
         K06B06N  C2006 01 23.49962 09 12 27.36 -32 10 49.7          17.6 V EB029E12
         K06B06N  C2006 01 23.50068 09 12 27.28 -32 10 53.7          17.9 V EB029E12
         K06B06N  C2006 01 23.50324 09 12 27.07 -32 11 03.1          18.1 R EB029423
         K06B06N  C2006 01 23.52054 09 12 25.62 -32 12 06.6          18.1 R EB029474
         K06B06N  C2006 01 23.52170 09 12 25.56 -32 12 10.8          18.1 R EB029474
         K06B06N  C2006 01 23.52274 09 12 25.49 -32 12 14.6          18.1 R EB029474
         K06B06N  C2006 01 23.52483 09 12 25.35 -32 12 22.5          18.1 R EB029474
         K06B06N  C2006 01 23.52755 09 12 25.65 -32 12 34.0          17.6 R EB029423
         K06B06N  C2006 01 23.55226 09 12 23.99 -32 14 07.3          18.2 R EB029423
         K06B06N  C2006 01 23.58028 09 12 22.15 -32 15 52.1          17.0 R EB029423
         K06B06N  C2006 01 23.63889 09 12 18.39 -32 19 33.3          17.2 V EB029E12
         K06B06N  C2006 01 23.63983 09 12 18.32 -32 19 36.5          17.9 V EB029E12
         K06B06N  C2006 01 23.64074 09 12 18.28 -32 19 40.0          17.8 V EB029E12
    
    Observer details:
    423 North Ryde.  Observer S. G. McAndrew.  0.20-m f/4 hyperbolic astrograph
        + CCD.
    474 Mount John Observatory, Lake Tekapo.  Observer A. C. Gilmore.  Measurers
        P. M. Kilmartin, A. C. Gilmore.  0.6-m f/7.6 reflector + CCD.
    670 Camarillo.  Observer J. E. Rogers.
    673 Table Mountain Observatory, Wrightwood.  Observer J. Young.  0.6-m f/16
        Cassegrain + CCD.
    854 Sabino Canyon Observatory, Tucson.  Observer J. E. McGaha.  0.36-m f/10.0
        Schmidt-Cassegrain + CCD.
    E12 Siding Spring Survey.  Observers G. J. Garradd, R. H. McNaught.  Measurers
        E. C. Beshore, E. J. Christensen, G. J. Garradd, A. D. Grauer, R. E. Hill,
        R. A. Kowalski, S. M. Larson, R. H. McNaught.  0.5-m Uppsala Schmidt + CCD.
    H06 New Mexico Skies Observatory.  Observer R. Hutsebaut.  0.25-m reflector
        + CCD.
    I77 CEAMIG-REA Observatory, Belo Horizonte.  Observers C. Jacques, E. Pimentel.
        Measurer C. Jacques.  0.30-m f/3.0 Schmidt-Cassegrain + CCD.
    J87 La Canada.  Observer J. Lacruz.  0.30-m Schmidt-Cassegrain + CCD.
    
    Orbital elements:
    2006 BN6                                                 Earth MOID = 0.1940 AU
    Epoch 2006 Jan. 5.0 TT = JDT 2453740.5                  MPC
    M 335.95152              (2000.0)            P               Q
    n   0.25595132     Peri.  337.30632     -0.65323098     +0.70084728
    a   2.4567698      Node   250.59349     -0.63968442     -0.71330139
    e   0.6970946      Incl.   17.68570     -0.40508409     -0.00377049
    P   3.85           H   17.4           G   0.15
    From 54 observations 2006 Jan. 21-23.
    
    Ephemeris:
    2006 BN6                 a,e,i = 2.46, 0.70, 18                  q = 0.7442
    Date    TT    R. A. (2000) Decl.     Delta      r     Elong.  Phase     V
    2006 01 15    09 18.06   -24 11.2    0.601    1.442   129.4    31.8    18.4
    2006 01 25    09 10.91   -33 45.9    0.493    1.336   126.2    36.5    18.0
    2006 02 04    08 54.43   -45 48.4    0.408    1.230   117.7    45.2    17.6
    2006 02 14    08 16.12   -60 23.6    0.347    1.124   104.1    58.5    17.5
    2006 02 24    06 04.59   -75 04.9    0.313    1.021    86.7    75.5    17.6
    2006 03 06    00 45.48   -72 35.9    0.309    0.925    68.5    93.4    18.0
    2006 03 16    23 04.15   -55 12.8    0.336    0.841    53.9   107.3    18.7
    2006 03 26    22 37.75   -38 06.7    0.396    0.779    46.4   112.0    19.1
    2006 04 05    22 33.58   -23 57.9    0.484    0.747    45.6   106.8    19.2
    2006 04 15    22 40.57   -12 49.2    0.589    0.751    48.1    96.2    19.1
    2006 04 25    22 53.74   -04 02.6    0.699    0.790    51.4    84.7    19.1
    2006 05 05    23 09.56   +02 59.8    0.803    0.857    55.1    74.7    19.2
    2006 05 15    23 25.72   +08 46.7    0.894    0.944    59.0    66.7    19.4
    2006 05 25    23 40.87   +13 38.1    0.969    1.042    63.4    60.4    19.6
    2006 06 04    23 54.12   +17 47.1    1.027    1.146    68.3    55.3    19.8
    2006 06 14    00 04.90   +21 22.3    1.069    1.252    73.8    51.2    19.9
    2006 06 24    00 12.73   +24 29.1    1.096    1.358    79.9    47.5    20.1
    2006 07 04    00 17.09   +27 09.6    1.111    1.464    86.8    43.9    20.1
    2006 07 14    00 17.51   +29 22.8    1.117    1.567    94.5    40.3    20.2
    2006 07 24    00 13.58   +31 05.4    1.117    1.669   102.9    36.4    20.2
    2006 08 03    00 05.13   +32 10.4    1.116    1.767   112.0    32.2    20.2
    2006 08 13    23 52.58   +32 29.4    1.120    1.863   121.7    27.6    20.2
    2006 08 23    23 37.02   +31 55.9    1.134    1.957   131.4    22.8    20.2
    2006 09 02    23 20.25   +30 28.2    1.165    2.047   140.5    18.3    20.2
    2006 09 12    23 04.37   +28 14.9    1.218    2.135   147.2    14.8    20.3
    2006 09 22    22 51.04   +25 32.2    1.295    2.220   149.7    13.2    20.5
    2006 10 02    22 41.27   +22 39.4    1.397    2.303   147.1    13.7    20.7
    2006 10 12    22 35.31   +19 53.9    1.523    2.383   140.9    15.3    21.0
    2006 10 22    22 32.89   +17 26.8    1.671    2.460   133.0    17.2    21.4
    2006 11 01    22 33.58   +15 24.0    1.837    2.535   124.5    18.8    21.7
    2006 11 11    22 36.83   +13 47.1    2.018    2.608   116.0    20.0    22.0
    2006 11 21    22 42.15   +12 34.9    2.210    2.679   107.5    20.6    22.3
    
    Gareth V. Williams           (C) Copyright 2006 MPC           M.P.E.C. 2006-B29
    

    Read MPEC 2006-B28 Read MPEC 2006-B30


    MPEC number:

    Enter an MPEC number in one of the following forms:

    • 1997-B01 (the full form)
    • J97B01 (the packed version of the full form)
    • B01 (the abbreviated form)